When you browse on this site, cookies collect data to enhance your experience and personalize the content and advertising you see.
Visit our Privacy Policy to learn more. By continuing to use the site, you agree to this use of cookies and data.
  • în România
  • Lista ţărilor
  • Pe 7 zile
  • Temperatura apei
  • Hartă satelitară
  • Meteo pe hartă
  • Widget-uri
  • user-avatar
    Intrare

    Meteo pe oră la Barra

    Astăzi, 21 Mai, Marţi

    Timp Temperatura Precipitaţii Vânt Presiune Umiditate
    00:00 +20°C° 0.2 mm 4 m/s 753 mmHg 94%
    01:00 +20°C° 0.2 mm 4 m/s 752 mmHg 95%
    02:00 +20°C° 0.3 mm 4 m/s 752 mmHg 95%
    03:00 +20°C° 0.3 mm 4 m/s 752 mmHg 95%
    04:00 +20°C° 0 mm 4 m/s 752 mmHg 95%
    05:00 +20°C° 0.2 mm 4 m/s 752 mmHg 95%
    06:00 +20°C° 0.2 mm 4 m/s 752 mmHg 94%
    07:00 +20°C° 0.2 mm 4 m/s 752 mmHg 94%
    08:00 +21°C° 0.2 mm 4 m/s 753 mmHg 91%
    09:00 +21°C° 0.2 mm 5 m/s 753 mmHg 89%
    10:00 +22°C° 0.2 mm 5 m/s 753 mmHg 87%
    11:00 +23°C° 0.4 mm 5 m/s 753 mmHg 85%
    12:00 +23°C° 0.4 mm 5 m/s 752 mmHg 83%
    13:00 +25°C° 0.4 mm 5 m/s 752 mmHg 81%
    14:00 +25°C° 0.4 mm 5 m/s 752 mmHg 82%
    15:00 +25°C° 0.4 mm 5 m/s 752 mmHg 83%
    16:00 +23°C° 0.4 mm 5 m/s 751 mmHg 84%
    17:00 +23°C° 0.5 mm 5 m/s 752 mmHg 87%
    18:00 +22°C° 0.5 mm 5 m/s 752 mmHg 90%
    19:00 +22°C° 0.5 mm 5 m/s 752 mmHg 93%
    20:00 +21°C° 0.7 mm 5 m/s 752 mmHg 93%
    21:00 +21°C° 0.7 mm 5 m/s 753 mmHg 93%
    22:00 +21°C° 0.7 mm 5 m/s 753 mmHg 94%
    23:00 +21°C° 1 mm 5 m/s 753 mmHg 94%

    Mâine, 22 Mai, Miercuri

    Timp Temperatura Precipitaţii Vânt Presiune Umiditate
    00:00 +21°C° 1 mm 5 m/s 753 mmHg 95%
    01:00 +21°C° 1 mm 5 m/s 753 mmHg 95%
    02:00 +21°C° 0.9 mm 5 m/s 753 mmHg 95%
    03:00 +21°C° 0.9 mm 5 m/s 753 mmHg 95%
    04:00 +21°C° 0.9 mm 5 m/s 753 mmHg 96%
    05:00 +21°C° 0.9 mm 5 m/s 753 mmHg 96%
    06:00 +21°C° 0.9 mm 5 m/s 753 mmHg 96%
    07:00 +21°C° 0.9 mm 5 m/s 754 mmHg 96%
    08:00 +21°C° 0.7 mm 5 m/s 754 mmHg 94%
    09:00 +21°C° 0.7 mm 5 m/s 754 mmHg 93%
    10:00 +22°C° 0.7 mm 5 m/s 754 mmHg 92%
    11:00 +23°C° 0.5 mm 5 m/s 754 mmHg 88%
    12:00 +23°C° 0.5 mm 5 m/s 753 mmHg 84%
    13:00 +25°C° 0.5 mm 5 m/s 753 mmHg 79%
    14:00 +25°C° 0.3 mm 5 m/s 752 mmHg 79%
    15:00 +25°C° 0.3 mm 5 m/s 752 mmHg 79%
    16:00 +25°C° 0.3 mm 5 m/s 752 mmHg 78%
    17:00 +23°C° 0.4 mm 5 m/s 752 mmHg 83%
    18:00 +22°C° 0.4 mm 5 m/s 752 mmHg 88%
    19:00 +21°C° 0.4 mm 4 m/s 753 mmHg 93%
    20:00 +21°C° 0.9 mm 5 m/s 753 mmHg 94%
    21:00 +21°C° 0.9 mm 5 m/s 753 mmHg 95%
    22:00 +21°C° 0.9 mm 5 m/s 754 mmHg 95%
    23:00 +21°C° 0.8 mm 5 m/s 753 mmHg 95%

    Poimâine, 23 Mai, Joi

    Timp Temperatura Precipitaţii Vânt Presiune Umiditate
    00:00 +21°C° 0.8 mm 5 m/s 753 mmHg 95%
    01:00 +21°C° 0.8 mm 5 m/s 753 mmHg 95%
    02:00 +21°C° 0.8 mm 5 m/s 753 mmHg 96%
    03:00 +21°C° 0.8 mm 5 m/s 752 mmHg 96%
    04:00 +21°C° 0.8 mm 5 m/s 752 mmHg 96%
    05:00 +21°C° 0.9 mm 5 m/s 753 mmHg 96%
    06:00 +21°C° 0.9 mm 5 m/s 753 mmHg 96%
    07:00 +20°C° 0.9 mm 5 m/s 753 mmHg 96%
    08:00 +21°C° 0.5 mm 5 m/s 753 mmHg 94%
    09:00 +22°C° 0.5 mm 5 m/s 754 mmHg 93%
    10:00 +22°C° 0.5 mm 5 m/s 754 mmHg 92%
    11:00 +23°C° 0.1 mm 5 m/s 754 mmHg 84%
    12:00 +25°C° 0.1 mm 5 m/s 753 mmHg 77%
    13:00 +26°C° 0.1 mm 5 m/s 753 mmHg 69%
    14:00 +26°C° 0.1 mm 5 m/s 752 mmHg 70%
    15:00 +26°C° 0.1 mm 5 m/s 752 mmHg 71%
    16:00 +25°C° 0.1 mm 5 m/s 752 mmHg 72%
    17:00 +23°C° 0.2 mm 5 m/s 752 mmHg 79%
    18:00 +22°C° 0.2 mm 4 m/s 752 mmHg 85%
    19:00 +21°C° 0.2 mm 4 m/s 753 mmHg 92%
    20:00 +21°C° 0.4 mm 4 m/s 753 mmHg 93%
    21:00 +21°C° 0.4 mm 4 m/s 753 mmHg 94%
    22:00 +21°C° 0.4 mm 4 m/s 753 mmHg 95%
    23:00 +21°C° 0.5 mm 4 m/s 753 mmHg 95%

    24 Mai, Vineri

    Timp Temperatura Precipitaţii Vânt Presiune Umiditate
    00:00 +20°C° 0.5 mm 5 m/s 753 mmHg 95%
    01:00 +20°C° 0.5 mm 5 m/s 752 mmHg 96%
    02:00 +20°C° 0.6 mm 5 m/s 752 mmHg 96%
    03:00 +20°C° 0.6 mm 5 m/s 752 mmHg 96%
    04:00 +20°C° 0.6 mm 5 m/s 751 mmHg 96%
    05:00 +20°C° 0.3 mm 5 m/s 752 mmHg 96%
    06:00 +20°C° 0.3 mm 5 m/s 752 mmHg 96%
    07:00 +20°C° 0.3 mm 5 m/s 753 mmHg 96%
    08:00 +21°C° 0.2 mm 5 m/s 753 mmHg 92%
    09:00 +21°C° 0.2 mm 5 m/s 753 mmHg 89%
    10:00 +22°C° 0.2 mm 5 m/s 753 mmHg 86%
    11:00 +23°C° 0.3 mm 5 m/s 753 mmHg 81%
    12:00 +25°C° 0.3 mm 5 m/s 752 mmHg 77%
    13:00 +26°C° 0.3 mm 5 m/s 751 mmHg 73%
    14:00 +25°C° 0.2 mm 5 m/s 751 mmHg 74%
    15:00 +25°C° 0.2 mm 5 m/s 751 mmHg 75%
    16:00 +25°C° 0.2 mm 5 m/s 750 mmHg 77%
    17:00 +23°C° 0.2 mm 4 m/s 751 mmHg 82%
    18:00 +22°C° 0.2 mm 4 m/s 751 mmHg 87%
    19:00 +21°C° 0.2 mm 4 m/s 751 mmHg 92%
    20:00 +21°C° 0.3 mm 4 m/s 752 mmHg 93%
    21:00 +21°C° 0.3 mm 3 m/s 752 mmHg 94%
    22:00 +21°C° 0.3 mm 3 m/s 752 mmHg 95%
    23:00 +21°C° 0.5 mm 3 m/s 752 mmHg 95%

    25 Mai, Sâmbătă

    Timp Temperatura Precipitaţii Vânt Presiune Umiditate
    00:00 +21°C° 0.5 mm 3 m/s 752 mmHg 95%
    01:00 +21°C° 0.5 mm 3 m/s 751 mmHg 96%
    02:00 +21°C° 0.6 mm 3 m/s 751 mmHg 96%
    03:00 +21°C° 0.6 mm 3 m/s 751 mmHg 96%
    04:00 +20°C° 0.6 mm 3 m/s 750 mmHg 96%
    05:00 +20°C° 0.5 mm 3 m/s 751 mmHg 96%
    06:00 +21°C° 0.5 mm 3 m/s 751 mmHg 96%
    07:00 +21°C° 0.5 mm 3 m/s 752 mmHg 96%
    08:00 +21°C° 0.4 mm 3 m/s 752 mmHg 95%
    09:00 +22°C° 0.4 mm 3 m/s 752 mmHg 93%
    10:00 +22°C° 0.4 mm 3 m/s 752 mmHg 91%
    11:00 +24°C° 0.2 mm 3 m/s 751 mmHg 87%
    12:00 +25°C° 0.2 mm 3 m/s 751 mmHg 83%
    13:00 +25°C° 0.2 mm 3 m/s 750 mmHg 79%
    14:00 +25°C° 0.3 mm 3 m/s 750 mmHg 80%
    15:00 +25°C° 0.3 mm 3 m/s 750 mmHg 80%
    16:00 +25°C° 0.3 mm 3 m/s 749 mmHg 81%
    17:00 +24°C° 0.3 mm 3 m/s 750 mmHg 86%
    18:00 +22°C° 0.3 mm 3 m/s 750 mmHg 91%
    19:00 +21°C° 0.3 mm 2 m/s 751 mmHg 96%
    20:00 +21°C° 0.2 mm 2 m/s 751 mmHg 96%
    21:00 +21°C° 0.2 mm 2 m/s 751 mmHg 96%
    22:00 +21°C° 0.2 mm 2 m/s 751 mmHg 97%
    23:00 +21°C° 0.2 mm 2 m/s 751 mmHg 97%

    26 Mai, Duminică

    Timp Temperatura Precipitaţii Vânt Presiune Umiditate
    00:00 +21°C° 0.2 mm 2 m/s 751 mmHg 97%
    01:00 +21°C° 0.2 mm 2 m/s 750 mmHg 97%
    02:00 +21°C° 0.1 mm 2 m/s 750 mmHg 96%
    03:00 +20°C° 0.1 mm 2 m/s 750 mmHg 96%
    04:00 +20°C° 0.1 mm 2 m/s 750 mmHg 96%
    05:00 +20°C° 0.1 mm 2 m/s 751 mmHg 96%
    06:00 +21°C° 0.1 mm 2 m/s 751 mmHg 96%
    07:00 +21°C° 0.1 mm 3 m/s 751 mmHg 96%
    08:00 +22°C° 0.1 mm 3 m/s 752 mmHg 92%
    09:00 +24°C° 0.1 mm 3 m/s 752 mmHg 88%
    10:00 +25°C° 0.1 mm 3 m/s 752 mmHg 83%
    11:00 +25°C° 0.2 mm 3 m/s 751 mmHg 80%
    12:00 +26°C° 0.2 mm 3 m/s 751 mmHg 76%
    13:00 +27°C° 0.2 mm 3 m/s 750 mmHg 72%
    14:00 +26°C° 0.2 mm 3 m/s 750 mmHg 75%
    15:00 +26°C° 0.2 mm 3 m/s 750 mmHg 78%
    16:00 +26°C° 0.2 mm 3 m/s 749 mmHg 81%
    17:00 +24°C° 0.1 mm 2 m/s 750 mmHg 85%
    18:00 +23°C° 0.1 mm 2 m/s 750 mmHg 90%
    19:00 +21°C° 0.1 mm 2 m/s 751 mmHg 94%
    20:00 +21°C° 0.1 mm 2 m/s 751 mmHg 95%
    21:00 +22°C° 0.1 mm 1 m/s 751 mmHg 96%
    22:00 +21°C° 0.1 mm 1 m/s 751 mmHg 97%
    23:00 +21°C° 0.1 mm 1 m/s 751 mmHg 97%
    Arată mai mult